Location: Quedlinburg
(51.7921°N, 11.1414°E)
Time: 16:26:00
(UTC+02:00)

CUBESAT XI-V - Pass Details

Date: 20 March 2026
Orbit: 643 x 664 km, 98.3° (Epoch: 17 April)

Event Time Altitude Azimuth Distance (km) Brightness Sun altitude
Exits shadow 03:59:56 26° 309° (NW) 1,296 ? -21.4°
Drops below altitude 10° 04:02:17 10° 331° (NNW) 2,065 ? -21.0°
Sets 04:04:39 0° 340° (NNW) 2,977 ? -20.7°
